| time (UTC) | temp C | wind direction | speed KPH | gust KPH | rain 1hr cm | rain 24hr cm | rain mn cm | humidity % | barometer mb |
| 20260504151005 | 15 | 290 | 6.4 | 9.7 | 0.00 | 0.00 | 0.00 | 44 | 1007.6 |
| 20260504150510 | 15 | 234 | 4.8 | 9.7 | 0.00 | 0.00 | 0.00 | 43 | 1007.6 |
| 20260504141004 | 13 | 266 | 0.0 | 14.5 | 0.00 | 0.00 | 0.00 | 43 | 1008.1 |
| 20260504140509 | 13 | 217 | 4.8 | 14.5 | 0.00 | 0.00 | 0.00 | 41 | 1008.1 |
| 20260504130504 | 13 | 231 | 1.6 | 9.7 | 0.00 | 0.00 | 0.00 | 43 | 1008.5 |
| 20260504110504 | 6 | 288 | 0.0 | 3.2 | 0.00 | 0.00 | 0.00 | 75 | 1008.9 |
| 20260504100504 | 7 | 96 | 0.0 | 3.2 | 0.00 | 0.00 | 0.00 | 76 | 1008.8 |
| 20260504081537 | 6 | 79 | 0.0 | 3.2 | 0.00 | 0.00 | 0.00 | 79 | 1008.8 |
| 20260504081008 | 6 | 195 | 1.6 | 4.8 | 0.00 | 0.00 | 0.00 | 78 | 1008.8 |
| 20260504080508 | 5 | 77 | 1.6 | 4.8 | 0.00 | 0.00 | 0.00 | 79 | 1008.9 |
| 20260504050504 | 2 | 109 | 0.0 | 3.2 | 0.00 | 0.00 | 0.00 | 76 | 1009.5 |
| 20260504050011 | 2 | 68 | 0.0 | 3.2 | 0.00 | 0.00 | 0.00 | 76 | 1009.5 |
| 20260504045501 | 2 | 312 | 0.0 | 3.2 | 0.00 | 0.00 | 0.00 | 75 | 1009.6 |
| 20260504045003 | 2 | 328 | 0.0 | 3.2 | 0.00 | 0.00 | 0.00 | 77 | 1009.7 |
| 20260504044505 | 2 | 253 | 1.6 | 3.2 | 0.00 | 0.00 | 0.00 | 76 | 1009.6 |
| 20260504044003 | 2 | 153 | 0.0 | 3.2 | 0.00 | 0.00 | 0.00 | 76 | 1009.7 |
| 20260504043503 | 2 | 154 | 0.0 | 3.2 | 0.00 | 0.00 | 0.00 | 75 | 1009.7 |
| 20260504043017 | 2 | 176 | 0.0 | 3.2 | 0.00 | 0.00 | 0.00 | 75 | 1009.7 |
| 20260504042504 | 2 | 156 | 0.0 | 3.2 | 0.00 | 0.00 | 0.00 | 76 | 1009.7 |
| 20260504042005 | 1 | 160 | 0.0 | 3.2 | 0.00 | 0.00 | 0.00 | 75 | 1009.7 |
| 20260504041509 | 1 | 160 | 0.0 | 3.2 | 0.00 | 0.00 | 0.00 | 76 | 1009.6 |
| 20260504041003 | 1 | 123 | 0.0 | 3.2 | 0.00 | 0.00 | 0.00 | 76 | 1009.5 |
| 20260504040505 | 1 | 113 | 0.0 | 3.2 | 0.00 | 0.00 | 0.00 | 77 | 1009.4 |
| 20260504040013 | 1 | 115 | 0.0 | 3.2 | 0.00 | 0.00 | 0.00 | 77 | 1009.5 |
| 20260504035503 | 1 | 86 | 0.0 | 3.2 | 0.00 | 0.00 | 0.00 | 77 | 1009.6 |
| 20260504035004 | 1 | 89 | 0.0 | 3.2 | 0.00 | 0.00 | 0.00 | 77 | 1009.5 |
| 20260504034505 | 1 | 91 | 0.0 | 3.2 | 0.00 | 0.00 | 0.00 | 76 | 1009.5 |
| 20260504034004 | 1 | 91 | 0.0 | 3.2 | 0.00 | 0.00 | 0.00 | 76 | 1009.5 |
| 20260504033503 | 1 | 91 | 0.0 | 3.2 | 0.00 | 0.00 | 0.00 | 76 | 1009.4 |
| 20260504033007 | 1 | 91 | 0.0 | 3.2 | 0.00 | 0.00 | 0.00 | 76 | 1009.5 |
| 20260504032504 | 1 | 91 | 0.0 | 3.2 | 0.00 | 0.00 | 0.00 | 77 | 1009.5 |
| 20260504032006 | 1 | 91 | 0.0 | 3.2 | 0.00 | 0.00 | 0.00 | 77 | 1009.5 |
| 20260504031510 | 1 | 91 | 0.0 | 1.6 | 0.00 | 0.00 | 0.00 | 77 | 1009.4 |
| 20260504031004 | 1 | 91 | 0.0 | 0.0 | 0.00 | 0.00 | 0.00 | 76 | 1009.5 |
| 20260504030505 | 1 | 91 | 0.0 | 3.2 | 0.00 | 0.00 | 0.00 | 75 | 1009.5 |
| 20260504030021 | 1 | 91 | 0.0 | 3.2 | 0.00 | 0.00 | 0.00 | 74 | 1009.5 |
| 20260504025504 | 1 | 91 | 0.0 | 3.2 | 0.00 | 0.00 | 0.00 | 75 | 1009.5 |
| 20260504025004 | 1 | 117 | 0.0 | 3.2 | 0.00 | 0.00 | 0.00 | 74 | 1009.6 |
| 20260504024514 | 1 | 117 | 0.0 | 0.0 | 0.00 | 0.00 | 0.00 | 73 | 1009.5 |
| 20260504024003 | 1 | 117 | 0.0 | 3.2 | 0.00 | 0.00 | 0.00 | 72 | 1009.5 |
| 20260504023503 | 1 | 117 | 0.0 | 3.2 | 0.00 | 0.00 | 0.00 | 72 | 1009.5 |
| 20260504023005 | 1 | 117 | 0.0 | 3.2 | 0.00 | 0.00 | 0.00 | 71 | 1009.6 |
| 20260504022503 | 2 | 113 | 0.0 | 3.2 | 0.00 | 0.00 | 0.00 | 72 | 1009.6 |
| 20260504022005 | 2 | 113 | 0.0 | 3.2 | 0.00 | 0.00 | 0.00 | 70 | 1009.7 |
| 20260504021510 | 2 | 113 | 0.0 | 3.2 | 0.00 | 0.00 | 0.00 | 70 | 1009.6 |
| 20260504021003 | 2 | 114 | 0.0 | 3.2 | 0.00 | 0.00 | 0.00 | 70 | 1009.6 |
| 20260504020505 | 2 | 114 | 0.0 | 3.2 | 0.00 | 0.00 | 0.00 | 68 | 1009.6 |
| 20260504020014 | 2 | 114 | 0.0 | 3.2 | 0.00 | 0.00 | 0.00 | 66 | 1009.5 |
| 20260504015503 | 2 | 114 | 0.0 | 3.2 | 0.00 | 0.00 | 0.00 | 66 | 1009.6 |
| 20260504015006 | 3 | 114 | 0.0 | 3.2 | 0.00 | 0.00 | 0.00 | 66 | 1009.5 |
| 20260504014519 | 3 | 105 | 0.0 | 3.2 | 0.00 | 0.00 | 0.00 | 66 | 1009.4 |
| 20260504014003 | 3 | 103 | 0.0 | 3.2 | 0.00 | 0.00 | 0.00 | 67 | 1009.4 |
| 20260504013504 | 3 | 102 | 0.0 | 3.2 | 0.00 | 0.00 | 0.00 | 66 | 1009.4 |
| 20260504013031 | 3 | 102 | 0.0 | 3.2 | 0.00 | 0.00 | 0.00 | 66 | 1009.3 |
| 20260504012504 | 3 | 102 | 0.0 | 3.2 | 0.00 | 0.00 | 0.00 | 63 | 1009.2 |
| 20260504012003 | 4 | 91 | 1.6 | 3.2 | 0.00 | 0.00 | 0.00 | 62 | 1009.2 |
| 20260504011503 | 4 | 48 | 0.0 | 3.2 | 0.00 | 0.00 | 0.00 | 63 | 1009.0 |
| 20260504011001 | 5 | 48 | 0.0 | 3.2 | 0.00 | 0.00 | 0.00 | 61 | 1008.9 |
| 20260504010503 | 5 | 47 | 0.0 | 0.0 | 0.00 | 0.00 | 0.00 | 58 | 1008.8 |
| 20260504010012 | 5 | 47 | 0.0 | 0.0 | 0.00 | 0.00 | 0.00 | 56 | 1008.8 |
| 20260504005505 | 5 | 47 | 0.0 | 0.0 | 0.00 | 0.00 | 0.00 | 56 | 1008.7 |
| 20260504005011 | 6 | 47 | 0.0 | 3.2 | 0.00 | 0.00 | 0.00 | 56 | 1008.5 |
| 20260504004514 | 6 | 47 | 0.0 | 3.2 | 0.00 | 0.00 | 0.00 | 54 | 1008.5 |
| 20260504004004 | 6 | 47 | 0.0 | 3.2 | 0.00 | 0.00 | 0.00 | 51 | 1008.5 |
| 20260504003504 | 6 | 47 | 0.0 | 1.6 | 0.00 | 0.00 | 0.00 | 50 | 1008.5 |
| 20260504003016 | 7 | 47 | 0.0 | 3.2 | 0.00 | 0.00 | 0.00 | 49 | 1008.4 |
| 20260504002510 | 7 | 47 | 0.0 | 3.2 | 0.00 | 0.00 | 0.00 | 47 | 1008.3 |
| 20260504002006 | 7 | 47 | 0.0 | 3.2 | 0.00 | 0.00 | 0.00 | 46 | 1008.3 |
| 20260504001519 | 8 | 48 | 0.0 | 3.2 | 0.00 | 0.00 | 0.00 | 45 | 1008.2 |
| 20260504001005 | 8 | 61 | 0.0 | 3.2 | 0.00 | 0.00 | 0.00 | 43 | 1008.1 |
| 20260504000504 | 8 | 335 | 0.0 | 3.2 | 0.00 | 0.00 | 0.00 | 42 | 1008.1 |
| 20260504000008 | 9 | 335 | 0.0 | 3.2 | 0.00 | 0.00 | 0.00 | 41 | 1008.1 |
| 20260503235503 | 9 | 335 | 0.0 | 3.2 | 0.00 | 0.00 | 0.00 | 38 | 1008.0 |
| 20260503235004 | 9 | 319 | 0.0 | 3.2 | 0.00 | 0.00 | 0.00 | 36 | 1007.9 |
| 20260503234512 | 10 | 294 | 0.0 | 4.8 | 0.00 | 0.00 | 0.00 | 37 | 1007.8 |
| 20260503234006 | 10 | 304 | 1.6 | 4.8 | 0.00 | 0.00 | 0.00 | 37 | 1007.8 |
| 20260503233503 | 10 | 330 | 0.0 | 6.4 | 0.00 | 0.00 | 0.00 | 35 | 1007.7 |
| 20260503233021 | 10 | 360 | 3.2 | 9.7 | 0.00 | 0.00 | 0.00 | 36 | 1007.7 |
| 20260503232509 | 10 | 292 | 3.2 | 14.5 | 0.00 | 0.00 | 0.00 | 35 | 1007.7 |
| 20260503232010 | 10 | 85 | 6.4 | 14.5 | 0.00 | 0.00 | 0.00 | 34 | 1007.6 |
| 20260503231520 | 10 | 286 | 3.2 | 14.5 | 0.00 | 0.00 | 0.00 | 34 | 1007.5 |
| 20260503231004 | 10 | 9 | 4.8 | 14.5 | 0.00 | 0.00 | 0.00 | 34 | 1007.6 |
| 20260503230509 | 10 | 338 | 1.6 | 11.3 | 0.00 | 0.00 | 0.00 | 35 | 1007.7 |
| 20260503230019 | 10 | 311 | 1.6 | 14.5 | 0.00 | 0.00 | 0.00 | 35 | 1007.6 |
| 20260503225506 | 10 | 293 | 3.2 | 14.5 | 0.00 | 0.00 | 0.00 | 34 | 1007.6 |
| 20260503225004 | 10 | 282 | 4.8 | 12.9 | 0.00 | 0.00 | 0.00 | 34 | 1007.6 |
| 20260503224513 | 11 | 25 | 3.2 | 16.1 | 0.00 | 0.00 | 0.00 | 34 | 1007.6 |
| 20260503224004 | 10 | 298 | 6.4 | 16.1 | 0.00 | 0.00 | 0.00 | 34 | 1007.6 |
| 20260503223502 | 10 | 28 | 3.2 | 11.3 | 0.00 | 0.00 | 0.00 | 37 | 1007.6 |
| 20260503223016 | 10 | 349 | 0.0 | 3.2 | 0.00 | 0.00 | 0.00 | 40 | 1007.6 |
| 20260503222504 | 10 | 320 | 1.6 | 6.4 | 0.00 | 0.00 | 0.00 | 38 | 1007.6 |
| 20260503222007 | 10 | 14 | 1.6 | 8.0 | 0.00 | 0.00 | 0.00 | 38 | 1007.6 |
| 20260503221521 | 10 | 359 | 3.2 | 14.5 | 0.00 | 0.00 | 0.00 | 38 | 1007.6 |
| 20260503221011 | 10 | 20 | 3.2 | 14.5 | 0.00 | 0.00 | 0.00 | 37 | 1007.6 |
| 20260503220503 | 10 | 309 | 8.0 | 24.1 | 0.00 | 0.00 | 0.00 | 37 | 1007.7 |
| 20260503220007 | 10 | 281 | 4.8 | 24.1 | 0.00 | 0.00 | 0.00 | 38 | 1007.6 |
| 20260503215503 | 10 | 1 | 1.6 | 12.9 | 0.00 | 0.00 | 0.00 | 38 | 1007.7 |
| 20260503215003 | 10 | 238 | 4.8 | 19.3 | 0.00 | 0.00 | 0.00 | 37 | 1007.5 |
| 20260503214508 | 10 | 321 | 3.2 | 19.3 | 0.00 | 0.00 | 0.00 | 37 | 1007.6 |
| 20260503214004 | 10 | 296 | 6.4 | 14.5 | 0.00 | 0.00 | 0.00 | 38 | 1007.5 |
| 20260503213505 | 10 | 308 | 4.8 | 14.5 | 0.00 | 0.00 | 0.00 | 37 | 1007.5 |
| 20260503213014 | 10 | 111 | 6.4 | 17.7 | 0.00 | 0.00 | 0.00 | 39 | 1007.6 |
| 20260503212507 | 10 | 336 | 8.0 | 22.5 | 0.00 | 0.00 | 0.00 | 37 | 1007.7 |
| 20260503212004 | 10 | 276 | 6.4 | 22.5 | 0.00 | 0.00 | 0.00 | 38 | 1007.6 |
| 20260503211517 | 10 | 355 | 6.4 | 20.9 | 0.00 | 0.00 | 0.00 | 38 | 1007.6 |
| 20260503211007 | 10 | 81 | 1.6 | 9.7 | 0.00 | 0.00 | 0.00 | 38 | 1007.6 |
| 20260503210507 | 10 | 33 | 3.2 | 16.1 | 0.00 | 0.00 | 0.00 | 37 | 1007.7 |
| 20260503210023 | 10 | 46 | 4.8 | 17.7 | 0.00 | 0.00 | 0.00 | 38 | 1007.5 |
| 20260503205503 | 10 | 315 | 4.8 | 20.9 | 0.00 | 0.00 | 0.00 | 37 | 1007.6 |
| 20260503205003 | 10 | 283 | 6.4 | 20.9 | 0.00 | 0.00 | 0.00 | 39 | 1007.5 |
| 20260503204508 | 10 | 6 | 4.8 | 16.1 | 0.00 | 0.00 | 0.00 | 38 | 1007.5 |
| 20260503204004 | 10 | 35 | 3.2 | 16.1 | 0.00 | 0.00 | 0.00 | 39 | 1007.5 |
| 20260503203506 | 10 | 257 | 6.4 | 16.1 | 0.00 | 0.00 | 0.00 | 40 | 1007.5 |
| 20260503203032 | 10 | 265 | 1.6 | 11.3 | 0.00 | 0.00 | 0.00 | 40 | 1007.5 |
| 20260503202504 | 9 | 21 | 4.8 | 14.5 | 0.00 | 0.00 | 0.00 | 40 | 1007.5 |
| 20260503202006 | 9 | 343 | 4.8 | 16.1 | 0.00 | 0.00 | 0.00 | 39 | 1007.5 |
| 20260503201518 | 9 | 283 | 3.2 | 16.1 | 0.00 | 0.00 | 0.00 | 39 | 1007.5 |
| 20260503201009 | 9 | 300 | 4.8 | 12.9 | 0.00 | 0.00 | 0.00 | 39 | 1007.5 |
| 20260503200508 | 9 | 340 | 4.8 | 17.7 | 0.00 | 0.00 | 0.00 | 40 | 1007.4 |
| 20260503200023 | 9 | 113 | 4.8 | 17.7 | 0.00 | 0.00 | 0.00 | 38 | 1007.5 |
| 20260503195509 | 9 | 11 | 6.4 | 24.1 | 0.00 | 0.00 | 0.00 | 38 | 1007.6 |
| 20260503195009 | 9 | 314 | 8.0 | 24.1 | 0.00 | 0.00 | 0.00 | 38 | 1007.9 |
| 20260503194536 | 9 | 354 | 4.8 | 20.9 | 0.00 | 0.00 | 0.00 | 40 | 1007.7 |
| 20260503194003 | 9 | 35 | 8.0 | 27.4 | 0.00 | 0.00 | 0.00 | 39 | 1007.8 |
| 20260503193505 | 9 | 17 | 8.0 | 27.4 | 0.00 | 0.00 | 0.00 | 38 | 1007.9 |
| 20260503193009 | 9 | 295 | 6.4 | 17.7 | 0.00 | 0.00 | 0.00 | 39 | 1007.9 |
| 20260503192504 | 10 | 21 | 8.0 | 17.7 | 0.00 | 0.00 | 0.00 | 38 | 1007.7 |
| 20260503192004 | 9 | 345 | 4.8 | 16.1 | 0.00 | 0.00 | 0.00 | 38 | 1007.9 |
| 20260503191516 | 9 | 53 | 4.8 | 16.1 | 0.00 | 0.00 | 0.00 | 38 | 1008.1 |
| 20260503191004 | 9 | 48 | 8.0 | 14.5 | 0.00 | 0.00 | 0.00 | 38 | 1008.1 |
| 20260503190508 | 9 | 360 | 6.4 | 16.1 | 0.00 | 0.00 | 0.00 | 39 | 1008.1 |
| 20260503190034 | 9 | 3 | 6.4 | 16.1 | 0.00 | 0.00 | 0.00 | 39 | 1008.1 |
| 20260503185511 | 9 | 311 | 6.4 | 16.1 | 0.00 | 0.00 | 0.00 | 38 | 1008.0 |
| 20260503185008 | 9 | 330 | 4.8 | 16.1 | 0.00 | 0.00 | 0.00 | 39 | 1008.1 |
| 20260503184526 | 9 | 76 | 4.8 | 16.1 | 0.00 | 0.00 | 0.00 | 39 | 1008.1 |
| 20260503184009 | 9 | 319 | 4.8 | 17.7 | 0.00 | 0.00 | 0.00 | 39 | 1008.0 |
| 20260503183508 | 9 | 297 | 6.4 | 20.9 | 0.00 | 0.00 | 0.00 | 39 | 1008.0 |
| 20260503183009 | 9 | 356 | 8.0 | 20.9 | 0.00 | 0.00 | 0.00 | 37 | 1008.0 |
| 20260503182503 | 9 | 336 | 6.4 | 16.1 | 0.00 | 0.00 | 0.00 | 39 | 1008.0 |
| 20260503182003 | 9 | 26 | 6.4 | 14.5 | 0.00 | 0.00 | 0.00 | 39 | 1008.0 |
| 20260503181514 | 9 | 78 | 4.8 | 17.7 | 0.00 | 0.00 | 0.00 | 40 | 1007.9 |
| 20260503181004 | 9 | 1 | 6.4 | 17.7 | 0.00 | 0.00 | 0.00 | 38 | 1007.9 |
| 20260503180507 | 9 | 359 | 4.8 | 14.5 | 0.00 | 0.00 | 0.00 | 39 | 1007.7 |
| 20260503180016 | 9 | 354 | 6.4 | 27.4 | 0.00 | 0.00 | 0.00 | 40 | 1007.7 |
| 20260503175508 | 9 | 70 | 6.4 | 27.4 | 0.00 | 0.00 | 0.00 | 39 | 1007.6 |
| 20260503175007 | 9 | 288 | 6.4 | 19.3 | 0.00 | 0.00 | 0.00 | 39 | 1007.7 |
| 20260503174521 | 10 | 355 | 8.0 | 29.0 | 0.00 | 0.00 | 0.00 | 39 | 1007.6 |
| 20260503174007 | 9 | 359 | 12.9 | 29.0 | 0.00 | 0.00 | 0.00 | 38 | 1007.6 |
| 20260503173027 | 10 | 1 | 11.3 | 25.7 | 0.00 | 0.00 | 0.00 | 37 | 1007.7 |
| 20260503172514 | 10 | 212 | 9.7 | 20.9 | 0.00 | 0.00 | 0.00 | 35 | 1007.6 |
| 20260503172011 | 10 | 18 | 3.2 | 20.9 | 0.00 | 0.00 | 0.00 | 38 | 1007.6 |
| 20260503171510 | 10 | 358 | 6.4 | 27.4 | 0.00 | 0.00 | 0.00 | 37 | 1007.4 |
| 20260503171004 | 10 | 273 | 9.7 | 27.4 | 0.00 | 0.00 | 0.00 | 37 | 1007.3 |
| 20260503170504 | 9 | 30 | 6.4 | 20.9 | 0.00 | 0.00 | 0.00 | 37 | 1007.5 |